Terminal Aerodrome Forecast
Issued by NWS Flagstaff, AZ

Home | Current Version | Previous Version | Text Only | Print | Product List | Glossary On
Versions: 1 2 3 4 5 6 7 8 9 10 11 12 13 14 15 16
000
FTUS45 KFGZ 201120
TAFINW
TAF
KINW 201120Z 2012/2112 VRB06KT P6SM SCT100 OVC140
     FM201900 15006KT P6SM BKN100 PROB30 2021/2101 VRB15G25KT 6SM
      -TSRA BKN080CB
     FM210200 VRB03KT P6SM SCT110=

USA.gov is the U.S. government's official web portal to all federal, state and local government web resources and services.